This is the latest recevied weather packets stored in our database for station/object SV9TNF-57. If no packets are shown the sender has not sent any weather packets the latest 10 day(s).
| Time | Temp. | Humidity | Pressure | Rain* | Wind** | Luminosity | Snow |
|---|---|---|---|---|---|---|---|
| 1788473364 | 26.11° C | 48% | 993.4 hPa | 0 mm | 5.81 m/s, 322° | - | - |
| 1788473064 | 26.67° C | 48% | 993.7 hPa | 0 mm | 9.83 m/s, 349° | - | - |
| 1788472765 | 26.11° C | 49% | 993.5 hPa | 0 mm | 8.05 m/s, 326° | - | - |
| 1788472464 | 26.11° C | 50% | 993.6 hPa | 0 mm | 9.39 m/s, 297° | - | - |
| 1788472164 | 26.11° C | 49% | 993.7 hPa | 0 mm | 5.36 m/s, 316° | - | - |
| 1788471864 | 26.11° C | 49% | 993.8 hPa | 0 mm | 4.92 m/s, 280° | - | - |
| 1788471564 | 25.56° C | 50% | 993.7 hPa | 0 mm | 7.6 m/s, 315° | - | - |
| 1788471264 | 25.56° C | 51% | 993.7 hPa | 0 mm | 2.68 m/s, 122° | - | - |
| 1788470963 | 25.56° C | 51% | 993.8 hPa | 0 mm | 4.47 m/s, 321° | - | - |
| 1788470663 | 25.56° C | 50% | 993.6 hPa | 0 mm | 3.13 m/s, 292° | - | - |
| 1788470363 | 26.11° C | 50% | 993.6 hPa | 0 mm | 2.24 m/s, 306° | - | - |
| 1788470063 | 26.11° C | 49% | 993.6 hPa | 0 mm | 2.68 m/s, 277° | - | - |
| 1788469763 | 26.11° C | 49% | 993.7 hPa | 0 mm | 4.02 m/s, 290° | - | - |
| 1788469463 | 26.11° C | 50% | 993.7 hPa | 0 mm | 4.02 m/s, 291° | - | - |
| 1788469163 | 26.11° C | 50% | 993.7 hPa | 0 mm | 3.13 m/s, 292° | - | - |
| 1788468863 | 25.56° C | 52% | 993.9 hPa | 0 mm | 5.36 m/s, 284° | - | - |
| 1788468563 | 25.56° C | 55% | 993.8 hPa | 0 mm | 1.34 m/s, 306° | - | - |
| 1788468263 | 25° C | 56% | 993.7 hPa | 0 mm | 1.34 m/s, 287° | - | - |
| 1788467963 | 25° C | 57% | 993.9 hPa | 0 mm | 2.24 m/s, 286° | - | - |
| 1788467662 | 25° C | 58% | 993.8 hPa | 0 mm | 2.24 m/s, 313° | - | - |
| 1788467362 | 25° C | 59% | 993.8 hPa | 0 mm | 2.24 m/s, 243° | - | - |
| 1788467074 | 25° C | 59% | 993.8 hPa | 0 mm | 0 m/s | - | - |
| 1788466762 | 25° C | 58% | 994 hPa | 0 mm | 0.45 m/s, 285° | - | - |
| 1788466462 | 25° C | 58% | 994.1 hPa | 0 mm | 0.45 m/s, 289° | - | - |
| 1788466162 | 25° C | 58% | 993.9 hPa | 0 mm | 0.89 m/s, 284° | - | - |
* Rain latest hour (hover to see other rain measurements)
** Current wind speed in m/s (hover to see current wind gust speed)